TimeMST,TemperatureF,Dew PointF,Humidity,Sea Level PressureIn,VisibilityMPH,Wind Direction,Wind SpeedMPH,Gust SpeedMPH,PrecipitationIn,Events,Conditions,WindDirDegrees,DateUTC
12:57 AM,91.0,64.9,42,29.76,10.0,South,6.9,-,N/A,,Partly Cloudy,170,2013-09-02 07:57:00
1:57 AM,89.1,66.9,48,29.76,10.0,South,5.8,-,N/A,,Partly Cloudy,190,2013-09-02 08:57:00
2:57 AM,88.0,68.0,51,29.75,10.0,South,4.6,-,N/A,,Partly Cloudy,170,2013-09-02 09:57:00
3:57 AM,88.0,68.0,51,29.74,10.0,South,3.5,-,N/A,,Partly Cloudy,170,2013-09-02 10:57:00
4:57 AM,87.1,66.9,51,29.75,10.0,SSW,4.6,-,N/A,,Partly Cloudy,200,2013-09-02 11:57:00
5:57 AM,87.1,66.0,49,29.76,10.0,Calm,Calm,-,N/A,,Partly Cloudy,0,2013-09-02 12:57:00
6:57 AM,86.0,68.0,55,29.78,10.0,Calm,Calm,-,N/A,,Mostly Cloudy,0,2013-09-02 13:57:00
7:57 AM,89.1,66.9,48,29.80,10.0,Calm,Calm,-,N/A,,Mostly Cloudy,0,2013-09-02 14:57:00
8:57 AM,93.0,66.0,41,29.82,10.0,South,6.9,-,N/A,,Scattered Clouds,180,2013-09-02 15:57:00
9:57 AM,96.1,64.9,36,29.82,10.0,South,5.8,-,N/A,,Scattered Clouds,180,2013-09-02 16:57:00
10:57 AM,100.0,64.0,31,29.81,10.0,SSE,8.1,-,N/A,,Mostly Cloudy,160,2013-09-02 17:57:00
11:57 AM,102.0,62.1,27,29.81,10.0,SSE,12.7,-,N/A,,Mostly Cloudy,160,2013-09-02 18:57:00
12:57 PM,102.9,61.0,25,29.78,10.0,Variable,6.9,-,N/A,,Mostly Cloudy,0,2013-09-02 19:57:00
1:57 PM,104.0,62.1,25,29.74,10.0,Variable,4.6,-,N/A,,Mostly Cloudy,0,2013-09-02 20:57:00
2:57 PM,105.1,64.9,27,29.71,10.0,South,9.2,-,N/A,,Mostly Cloudy,190,2013-09-02 21:57:00
3:57 PM,105.1,62.1,25,29.70,10.0,SW,8.1,-,N/A,,Mostly Cloudy,220,2013-09-02 22:57:00
4:57 PM,105.1,57.9,21,29.69,10.0,SSW,9.2,-,N/A,Thunderstorm,Mostly Cloudy,210,2013-09-02 23:57:00
5:22 PM,102.0,64.0,29,29.70,10.0,WSW,11.5,-,N/A,Thunderstorm,Mostly Cloudy,250,2013-09-03 00:22:00
5:57 PM,98.1,64.0,33,29.70,10.0,West,12.7,-,N/A,Thunderstorm,Mostly Cloudy,270,2013-09-03 00:57:00
6:57 PM,93.0,63.0,37,29.72,9.0,NW,8.1,-,N/A,,Mostly Cloudy,310,2013-09-03 01:57:00
7:28 PM,91.0,66.0,44,29.77,10.0,NE,23.0,27.6,N/A,,Mostly Cloudy,40,2013-09-03 02:28:00
7:57 PM,90.0,66.9,46,29.75,10.0,NNE,11.5,-,N/A,,Mostly Cloudy,30,2013-09-03 02:57:00
8:57 PM,90.0,64.9,43,29.76,10.0,NE,9.2,-,N/A,,Scattered Clouds,50,2013-09-03 03:57:00
9:57 PM,87.1,66.0,49,29.77,10.0,NNE,12.7,-,N/A,,Scattered Clouds,30,2013-09-03 04:57:00
10:57 PM,88.0,64.9,46,29.76,10.0,NE,11.5,-,N/A,,Scattered Clouds,50,2013-09-03 05:57:00
11:57 PM,89.1,64.0,43,29.75,10.0,ENE,9.2,-,N/A,,Scattered Clouds,60,2013-09-03 06:57:00